| time (UTC) | temp F | wind direction | speed knots | gust knots | rain 1hr in | rain 24hr in | rain mn in | humidity % | barometer mb |
| 20260506041806 | 48 | 260 | 10.4 | 0.0 | 0.00 | 0.00 | 0.00 | 93 | |
| 20260506031608 | 48 | 260 | 10.4 | 0.0 | 0.00 | 0.00 | 0.00 | 93 | |
| 20260506021607 | 48 | 260 | 7.8 | 0.0 | 0.00 | 0.00 | 0.00 | 93 | |
| 20260506011707 | 48 | 270 | 12.2 | 0.0 | 0.00 | 0.00 | 0.00 | 99 | |
| 20260506001606 | 50 | 270 | 10.4 | 0.0 | 0.00 | 0.00 | 0.00 | 93 | |
| 20260505231607 | 50 | 260 | 7.8 | 0.0 | 0.00 | 0.00 | 0.00 | 93 | |
| 20260505221606 | 50 | 270 | 7.8 | 0.0 | 0.00 | 0.00 | 0.00 | 93 | |
| 20260505211606 | 52 | 110 | 1.7 | 0.0 | 0.00 | 0.00 | 0.00 | 93 | |
| 20260505201606 | 52 | 270 | 4.3 | 0.0 | 0.00 | 0.00 | 0.00 | 93 | |
| 20260505191607 | 52 | 280 | 12.2 | 0.0 | 0.00 | 0.00 | 0.00 | 93 | |
| 20260505181607 | 52 | 270 | 13.9 | 0.0 | 0.00 | 0.00 | 0.00 | 93 | |
| 20260505171606 | 57 | 70 | 7.8 | 0.0 | 0.00 | 0.00 | 0.00 | 82 | |
| 20260505161706 | 63 | 70 | 4.3 | 0.0 | 0.00 | 0.00 | 0.00 | 63 | |
| 20260505151606 | 68 | 70 | 1.7 | 0.0 | 0.00 | 0.00 | 0.00 | 40 | |
| 20260505121606 | 72 | 110 | 1.7 | 0.0 | 0.00 | 0.00 | 0.00 | 35 | |
| 20260505111606 | 68 | 20 | 1.7 | 0.0 | 0.00 | 0.00 | 0.00 | 45 | |
| 20260505101606 | 68 | 40 | 4.3 | 0.0 | 0.00 | 0.00 | 0.00 | 45 | |
| 20260505091606 | 64 | 70 | 1.7 | 0.0 | 0.00 | 0.00 | 0.00 | 52 | |
| 20260505081606 | 63 | 70 | 4.3 | 0.0 | 0.00 | 0.00 | 0.00 | 51 | |
| 20260505071606 | 59 | 70 | 4.3 | 0.0 | 0.00 | 0.00 | 0.00 | 62 | |
| 20260505061606 | 59 | 70 | 4.3 | 0.0 | 0.00 | 0.00 | 0.00 | 62 | |
| 20260505051607 | 55 | 70 | 6.1 | 0.0 | 0.00 | 0.00 | 0.00 | 66 |